This demonstration page uses our WeatherBlox Daily Observations layout. Learn more.

Left ArrowRight Arrow

Hourly Observations for February 4, 2022

Temp ( °F °C ) Dew Point ( °F °C ) Humidity (%) Winds ( mph kmh ) Pressure ( in mb ) Visibility ( mi km ) Precip ( " mm )
12:56 am 00:56 Clear 9 -12.8 -2 -18.9 61 61 WSW 9 15 30.49 1032 10 16 0.00 0.00
1:56 am 01:56 Clear 10 -12.2 0 -17.8 63 63 SW 9 15 30.46 1032 10 16 0.00 0.00
2:56 am 02:56 Clear 10 -12.2 1 -17.2 67 67 WSW 8 13 30.45 1031 10 16 0.00 0.00
3:56 am 03:56 Clear 9 -12.8 1 -17.2 70 70 WSW 5 7 30.45 1031 10 16 0.00 0.00
4:56 am 04:56 Clear 11 -11.7 2 -16.7 67 67 W 9 15 30.44 1031 10 16 0.00 0.00
5:56 am 05:56 Clear 11 -11.7 3 -16.1 70 70 W 3 6 30.45 1031 10 16 0.00 0.00
6:56 am 06:56 Clear 10 -12.2 2 -16.7 69 69 SW 8 13 30.45 1031 10 16 0.00 0.00
7:56 am 07:56 Sunny 11 -11.7 3 -16.1 70 70 WNW 8 13 30.49 1032 10 16 0.00 0.00
8:56 am 08:56 Cloudy 17 -8.3 6 -14.4 62 62 WNW 14 22 30.50 1033 10 16 0.00 0.00
9:56 am 09:56 Mostly Sunny 23 -5 9 -12.8 55 55 NNW 10 17 30.51 1033 10 16 0.00 0.00
10:56 am 10:56 Sunny 30 -1.1 12 -11.1 47 47 N 18 30 30.51 1033 10 16 0.00 0.00
11:56 am 11:56 Sunny 32 0 12 -11.1 43 43 N 16 26 30.52 1034 10 16 0.00 0.00
12:56 pm 12:56 Sunny 33 0.6 12 -11.1 42 42 NNW 10 17 30.50 1033 10 16 0.00 0.00
1:56 pm 13:56 Sunny 35 1.7 12 -11.1 38 38 NW 12 19 30.48 1032 10 16 0.00 0.00
2:56 pm 14:56 Sunny 36 2.2 12 -11.1 37 37 N 6 9 30.47 1032 10 16 0.00 0.00
3:56 pm 15:56 Sunny 38 3.3 13 -10.6 36 36 N 10 17 30.48 1032 10 16 0.00 0.00
4:56 pm 16:56 Sunny 36 2.2 12 -11.1 37 37 E 6 9 30.47 1032 10 16 0.00 0.00
5:56 pm 17:56 Sunny 28 -2.2 11 -11.7 49 49 E 8 13 30.48 1032 10 16 0.00 0.00
6:56 pm 18:56 Clear 24 -4.4 10 -12.2 55 55 E 9 15 30.48 1032 10 16 0.00 0.00
7:56 pm 19:56 Clear 22 -5.6 11 -11.7 63 63 ESE 9 15 30.48 1032 10 16 0.00 0.00
8:56 pm 20:56 Clear 19 -7.2 9 -12.8 65 65 SE 9 15 30.48 1032 10 16 0.00 0.00
9:56 pm 21:56 Clear 17 -8.3 8 -13.3 68 68 SE 8 13 30.46 1032 10 16 0.00 0.00
10:56 pm 22:56 Clear 17 -8.3 8 -13.3 68 68 S 6 9 30.44 1031 10 16 0.00 0.00
11:56 pm 23:56 Clear 16 -8.9 8 -13.3 71 71 S 6 9 30.41 1030 10 16 0.00 0.00

Powered by AerisWeather